EW4964 Weather Reports


Display with metric or nautical units.
time (UTC)temp
F
wind
direction
speed
MPH
gust
MPH
rain 1hr
in
rain 24hr
in
rain mn
in
humidity
%
barometer
mb
20260903141506 69 327 4.0 11.0 0.00 0.00 0.00 25 1018.1
20260903140006 68 284 5.0 13.0 0.00 0.00 0.00 26 1018.2
20260903134506 67 323 4.0 8.0 0.00 0.00 0.00 26 1018.3
20260903133006 66 257 4.0 9.0 0.00 0.00 0.00 26 1018.1
20260903131506 66 279 3.0 7.0 0.00 0.00 0.00 26 1018.0
20260903130007 67 346 3.0 7.0 0.00 0.00 0.00 26 1018.3
20260903123006 67 277 4.0 9.0 0.00 0.00 0.00 25 1017.9
20260903121506 67 316 4.0 10.0 0.00 0.00 0.00 26 1018.3
20260903120006 66 348 3.0 8.0 0.00 0.00 0.00 26 1018.3
20260903114506 67 44 3.0 8.0 0.00 0.00 0.00 26 1018.5
20260903113005 67 296 5.0 17.0 0.00 0.00 0.00 25 1018.9
20260903111506 67 205 4.0 7.0 0.00 0.00 0.00 26 1018.8
20260903110006 67 321 4.0 11.0 0.00 0.00 0.00 26 1018.9
20260903104506 65 299 4.0 13.0 0.00 0.00 0.00 29 1018.7
20260903103006 65 359 5.0 10.0 0.00 0.00 0.00 27 1019.0
20260903101506 66 325 5.0 10.0 0.00 0.00 0.00 28 1019.0
20260903100006 64 323 3.0 7.0 0.00 0.00 0.00 31 1019.0
20260903094506 64 207 4.0 9.0 0.00 0.00 0.00 31 1019.1
20260903091506 64 271 4.0 9.0 0.00 0.00 0.00 31 1019.0
20260903090005 64 288 4.0 8.0 0.00 0.00 0.00 32 1019.0
20260903084506 63 290 3.0 6.0 0.00 0.00 0.00 33 1019.2
20260903083006 62 271 3.0 7.0 0.00 0.00 0.00 33 1019.4
20260903081505 62 306 2.0 5.0 0.00 0.00 0.00 33 1019.5
20260903080005 62 254 2.0 4.0 0.00 0.00 0.00 33 1019.3
20260903074506 63 259 2.0 6.0 0.00 0.00 0.00 32 1019.2
20260903073005 62 292 3.0 8.0 0.00 0.00 0.00 32 1018.9
20260903064506 60 354 2.0 4.0 0.00 0.00 0.00 41 1018.9
20260903063005 58 342 2.0 5.0 0.00 0.00 0.00 43 1019.1
20260903060005 58 347 1.0 3.0 0.00 0.00 0.00 42 1018.8
20260903054505 57 289 1.0 4.0 0.00 0.00 0.00 43 1018.9
20260903053005 57 329 1.0 5.0 0.00 0.00 0.00 43 1018.7
20260903050005 56 1 1.0 3.0 0.00 0.00 0.00 44 1018.6
20260903044505 56 319 1.0 4.0 0.00 0.00 0.00 44 1018.7
20260903043005 55 297 1.0 3.0 0.00 0.00 0.00 44 1018.7
20260903041505 55 320 1.0 3.0 0.00 0.00 0.00 44 1018.6
20260903040008 55 306 1.0 2.0 0.00 0.00 0.00 43 1018.6
20260903034505 56 299 1.0 3.0 0.00 0.00 0.00 44 1018.4
20260903033005 55 342 1.0 3.0 0.00 0.00 0.00 44 1018.4
20260903031505 55 325 0.0 2.0 0.00 0.00 0.00 44 1018.4
20260903024505 55 46 0.0 2.0 0.00 0.00 0.00 44 1018.5
20260903021504 55 45 0.0 1.0 0.00 0.00 0.00 43 1018.6
20260903020005 56 45 0.0 2.0 0.00 0.00 0.00 43 1018.5
20260903014505 56 45 0.0 2.0 0.00 0.00 0.00 42 1018.7
20260903013004 57 31 3.0 6.0 0.00 0.00 0.00 41 1018.9
20260903011504 56 1 0.0 1.0 0.00 0.00 0.00 39 1018.7
20260903010004 56 1 0.0 1.0 0.00 0.00 0.00 37 1018.8
20260903004504 57 1 0.0 2.0 0.00 0.00 0.00 37 1018.7
20260903001508 58 1 0.0 1.0 0.00 0.00 0.00 37 1018.6
20260903000008 57 1 0.0 2.0 0.00 0.00 0.00 37 1018.4
20260902233008 57 1 2.0 4.0 0.00 0.00 0.00 37 1018.8
20260902231507 56 1 0.0 2.0 0.00 0.00 0.00 36 1019.1
20260902230008 57 0 0.0 0.0 0.00 0.00 0.00 35 1019.0
20260902224507 58 314 0.0 1.0 0.00 0.00 0.00 35 1019.0
20260902223008 59 315 0.0 2.0 0.00 0.00 0.00 34 1018.8
20260902221507 60 294 1.0 4.0 0.00 0.00 0.00 33 1018.9
20260902220013 60 259 2.0 4.0 0.00 0.00 0.00 34 1019.1
20260902214508 60 248 2.0 4.0 0.00 0.00 0.00 34 1019.0
20260902213008 60 266 1.0 4.0 0.00 0.00 0.00 34 1018.9
20260902211507 60 280 1.0 2.0 0.00 0.00 0.00 35 1019.0
20260902210008 58 46 0.0 2.0 0.00 0.00 0.00 37 1018.9
20260902204507 58 45 0.0 1.0 0.00 0.00 0.00 37 1018.7
20260902203007 58 45 0.0 1.0 0.00 0.00 0.00 37 1018.9
20260902201507 58 45 0.0 1.0 0.00 0.00 0.00 37 1018.8
20260902200007 58 45 0.0 1.0 0.00 0.00 0.00 36 1018.8
20260902194507 58 45 0.0 1.0 0.00 0.00 0.00 36 1018.8
20260902193007 59 45 0.0 1.0 0.00 0.00 0.00 36 1018.7
20260902191507 59 45 0.0 2.0 0.00 0.00 0.00 36 1018.9
20260902190007 60 46 1.0 2.0 0.00 0.00 0.00 35 1018.8
20260902184507 60 45 1.0 2.0 0.00 0.00 0.00 35 1018.7
20260902183007 61 45 1.0 3.0 0.00 0.00 0.00 34 1018.8
20260902181507 62 45 1.0 2.0 0.00 0.00 0.00 31 1018.7
20260902180008 62 45 1.0 2.0 0.00 0.00 0.00 31 1018.8
20260902173007 64 45 1.0 2.0 0.00 0.00 0.00 29 1018.5
20260902171507 65 45 1.0 3.0 0.00 0.00 0.00 28 1018.7
20260902170007 67 45 2.0 3.0 0.00 0.00 0.00 27 1018.6
20260902164506 68 45 2.0 4.0 0.00 0.00 0.00 26 1018.6
20260902163007 71 42 2.0 7.0 0.00 0.00 0.00 25 1018.5
20260902161507 73 351 2.0 4.0 0.00 0.00 0.00 22 1018.6
20260902160009 73 317 2.0 4.0 0.00 0.00 0.00 22 1018.5
20260902154507 72 323 2.0 8.0 0.00 0.00 0.00 22 1018.5
20260902153007 71 261 4.0 7.0 0.00 0.00 0.00 22 1018.6
20260902151506 71 333 3.0 6.0 0.00 0.00 0.00 22 1018.8
20260902150006 69 271 2.0 7.0 0.00 0.00 0.00 25 1018.6
20260902143006 69 324 2.0 4.0 0.00 0.00 0.00 25 1019.0